Regional Weather Roundup
Issued by NWS

Home | Current Version | Previous Version | Graphics & Text | Print | Product List | Glossary On
Versions: 1 2 3 4 5 6 7 8 9 10 11 12 13 14 15 16 17 18 19 20 21 22 23 24 25 26 27 28 29 30 31 32 33 34 35 36 37 38 39 40 41 42 43 44 45 46 47 48 49 50
000
ASUS43 KOAX 060202
RWRNE

WEATHER ROUNDUP FOR NEBRASKA
NATIONAL WEATHER SERVICE OMAHA NE
800 PM CST THU MAR 05 2015

NOTES: SATELLITE DATA IS BEING USED TO AUGMENT CLOUD COVER ABOVE
       12000 FEET.
       "FAIR" INDICATES FEW OR NO CLOUDS BELOW 12,000 FEET WITH NO
       SIGNIFICANT WEATHER AND/OR OBSTRUCTIONS TO VISIBILITY.

  * THESE STATIONS DO NOT REPORT WEATHER SUCH AS RAIN...SNOW OR FOG.

NEZ001>004-019>022-054>056-060300-
NEBRASKA PANHANDLE

CITY           SKY/WX    TMP DP  RH WIND       PRES   REMARKS
SCOTTSBLUFF    CLEAR     32  18  56 W6        30.22R WCI  26
ALLIANCE       CLEAR     30  12  47 NW6       30.19R WCI  24
CHADRON        CLEAR     32  21  64 SW9       30.19R WCI  24
KIMBALL        CLOUDY    32  19  58 NW8       30.21R WCI  25
SIDNEY         CLEAR     32  17  54 NW12      30.24R WCI  23
$$

NEZ057>060-069>072-079>082-060300-
SOUTHWEST NEBRASKA

CITY           SKY/WX    TMP DP  RH WIND       PRES   REMARKS
NORTH PLATTE   PTCLDY    31  10  41 NW3       30.20R
IMPERIAL         N/A     33  12  41 W7        30.23R WCI  27
LEXINGTON      CLEAR     34  10  37 S12       30.21S WCI  25
MCCOOK         CLEAR     37  14  38 SW7       30.23S WCI  32
$$

NEZ005>010-023>029-035>040-094-060300-
NORTH CENTRAL NEBRASKA

CITY           SKY/WX    TMP DP  RH WIND       PRES   REMARKS
VALENTINE      PTCLDY    28  14  55 W7        30.16R WCI  21
AINSWORTH      PTCLDY    31   9  39 SW5       30.16S WCI  26
BROKEN BOW     CLEAR     34  10  37 CALM      30.18S
ORD            PTCLDY    30   9  41 SE5       30.21S WCI  25
$$

NEZ041-046>049-061>064-073>077-083>087-060300-
SOUTH CENTRAL NEBRASKA

CITY           SKY/WX    TMP DP  RH WIND       PRES   REMARKS
GRAND ISLAND   CLEAR     30   9  41 S10       30.26F WCI  21
AURORA         PTCLDY    30   7  38 S12       30.27S WCI  21
HASTINGS       CLEAR     32   4  30 S9        30.26S WCI  24
HEBRON         PTCLDY    30   6  36 S6        30.33F WCI  24
HOLDREGE       CLEAR     32   6  33 S9        30.23S WCI  24
KEARNEY *      CLEAR     27   9  46 S7        30.24F WCI  19
YORK           CLEAR     30   9  40 S10       30.29S WCI  21
$$

NEZ011>018-030>034-042>045-060300-
NORTHEAST NEBRASKA

CITY           SKY/WX    TMP DP  RH WIND       PRES   REMARKS
NORFOLK        CLOUDY    29   7  39 S10       30.26F WCI  20
ALBION         MOCLDY    30   6  36 SE6       30.25S WCI  24
BLAIR          CLEAR     27   7  42 SE10      30.35F WCI  17
COLUMBUS *     CLEAR     28   5  37 SE10      30.30F WCI  19
FREMONT        CLEAR     28   8  41 SE12      30.34F WCI  18
TEKAMAH        CLEAR     23   7  50 SE13      30.35F WCI  11
WAYNE          CLEAR     25   6  44 S14       30.28F WCI  13
$$

NEZ050>053-065>068-078-088>093-060300-
SOUTHEAST NEBRASKA

CITY           SKY/WX    TMP DP  RH WIND       PRES   REMARKS
LINCOLN        CLEAR     27   9  46 SE9       30.35F WCI  18
OMAHA EPPLEY   CLEAR     26   7  44 SE14      30.39F WCI  14
BEATRICE       CLEAR     29   9  41 SE6       30.36F WCI  23
FALLS CITY     CLEAR     24   5  44 S8        30.44S WCI  15
NEBRASKA CITY  CLEAR     24   2  40 S9        30.40F WCI  14
$$

NEZ044-045-051>053-067-060300-
OMAHA AREA

CITY           SKY/WX    TMP DP  RH WIND       PRES   REMARKS
OMAHA EPPLEY   CLEAR     26   7  44 SE14      30.39F WCI  14
BLAIR          CLEAR     27   7  42 SE10      30.35F WCI  17
FREMONT        CLEAR     28   8  41 SE12      30.34F WCI  18
OFFUTT AFB     CLEAR     24   6  47 SE8       30.38F WCI  14
WAHOO          FAIR      23   7  50 SE9       30.34F WCI  13
$$


USA.gov is the U.S. government's official web portal to all federal, state and local government web resources and services.